Clearfield, PA

7:39 AM EDT on June 27, 2017 (GMT -0400)
Clearfield-Lawrence

Weather History for KFIG - September, 2012

Change the Weather History Date:

Saturday, September 29, 2012

  Actual Average (KDUJ) Record (KDUJ)
Temperature  
Mean Temperature 53 °F -  
Max Temperature 62 °F 63 °F 82 °F (1986)
Min Temperature 45 °F 45 °F 29 °F (2000)
Degree Days  
Heating Degree Days 12    
Growing Degree Days 3 (Base 50)    
Moisture  
Dew Point 46 °F    
Average Humidity 88    
Maximum Humidity 100    
Minimum Humidity 50    
Precipitation  
Precipitation 0.01 in - - ()
Sea Level Pressure  
Sea Level Pressure 30.02 in    
Wind  
Wind Speed 2 mph (WSW)    
Max Wind Speed 7 mph    
Max Gust Speed -    
Visibility 5 miles    
Events Fog    
Averages and records for this station are not official NWS values.
T = Trace of Precipitation, MM = Missing Value Source: NWS Daily Summary

Daily Weather History Graph

Daily Weather History Graph

Search for Another Location

Airport or City:

Trip Planner

Search our weather history database for the weather conditions in past years. The results will help you decide how hot, cold, wet, or windy it might be!

Date:

Astronomy

Sep. 29, 2012 Rise Set
Actual Time 7:08 AM EDT 6:58 PM EDT
Civil Twilight 6:41 AM EDT 7:25 PM EDT
Nautical Twilight 6:09 AM EDT 7:57 PM EDT
Astronomical Twilight 5:36 AM EDT 8:29 PM EDT
Moon 6:29 PM EDT (9/29) 6:38 AM EDT (9/29)
Length of Visible Light 12h 44m
Length of Day
11h 49m
Full, 100% of the Moon is Illuminated
Sep 29
Full
Sep 29
Full
Oct 8
Last Quarter
Oct 15
New
Oct 21
First Quarter

Hourly Weather History & Observations

Time (EDT) Temp. Windchill Dew Point Humidity Pressure Visibility Wind Dir Wind Speed Gust Speed Precip Events Conditions
12:54 AM 50.0 °F - 48.0 °F 93% 30.06 in 10.0 mi WSW 3.5 mph - N/A   Mostly Cloudy
1:54 AM 50.0 °F - 46.9 °F 89% 30.06 in 10.0 mi WNW 4.6 mph - N/A   Overcast
2:54 AM 48.0 °F - 46.0 °F 93% 30.06 in 10.0 mi Calm Calm - N/A   Overcast
3:24 AM 46.4 °F 45.2 °F 46.4 °F 100% 30.06 in 1.5 mi South 3.5 mph - N/A   Overcast
3:27 AM 46.4 °F 45.2 °F 46.4 °F 100% 30.06 in 0.8 mi SSW 3.5 mph - N/A   Overcast
3:39 AM 46.4 °F 45.2 °F 46.4 °F 100% 30.05 in 2.5 mi SSW 3.5 mph - N/A   Overcast
3:46 AM 46.4 °F 45.2 °F 46.4 °F 100% 30.05 in 5.0 mi SSW 3.5 mph - N/A   Overcast
3:54 AM 46.9 °F - 46.9 °F 100% 30.06 in 4.0 mi Calm Calm - N/A   Overcast
4:02 AM 46.4 °F - 46.4 °F 100% 30.04 in 1.5 mi Calm Calm - N/A   Overcast
4:12 AM 46.4 °F - 46.4 °F 100% 30.04 in 0.5 mi Calm Calm - N/A Fog Fog
4:29 AM 46.4 °F - 46.4 °F 100% 30.03 in 1.0 mi Calm Calm - N/A   Overcast
4:36 AM 46.4 °F - 46.4 °F 100% 30.03 in 0.8 mi Calm Calm - N/A   Overcast
4:41 AM 46.4 °F - 46.4 °F 100% 30.03 in 2.0 mi Calm Calm - N/A   Overcast
4:49 AM 46.4 °F - 44.6 °F 93% 30.03 in 3.0 mi Calm Calm - N/A   Overcast
4:51 AM 46.4 °F - 44.6 °F 93% 30.03 in 1.8 mi Calm Calm - N/A   Overcast
4:54 AM 46.0 °F - 45.0 °F 96% 30.04 in 1.2 mi Calm Calm - N/A   Overcast
5:03 AM 46.4 °F - 44.6 °F 93% 30.03 in 0.8 mi Calm Calm - N/A   Overcast
5:16 AM 46.4 °F - 44.6 °F 93% 30.03 in 0.2 mi Calm Calm - N/A Fog Fog
5:54 AM 46.0 °F - 45.0 °F 96% 30.05 in 0.2 mi Calm Calm - N/A Fog Fog
6:54 AM 46.0 °F 44.8 °F 45.0 °F 96% 30.05 in 0.2 mi SW 3.5 mph - N/A Fog Fog
7:54 AM 45.0 °F - 45.0 °F 100% 30.07 in 0.2 mi Calm Calm - 0.01 in Fog Fog
8:54 AM 45.0 °F 43.5 °F 45.0 °F 100% 30.07 in 0.2 mi SSW 3.5 mph - N/A Fog Fog
9:54 AM 46.0 °F 43.9 °F 46.0 °F 100% 30.08 in 0.2 mi South 4.6 mph - N/A Fog Fog
10:17 AM 48.2 °F - 46.4 °F 93% 30.06 in 1.0 mi SW 3.5 mph - N/A   Mist
10:23 AM 48.2 °F - 46.4 °F 93% 30.06 in 3.0 mi SSW 3.5 mph - N/A   Overcast
10:54 AM 48.9 °F - 48.0 °F 97% 30.06 in 9.0 mi SSW 4.6 mph - N/A   Overcast
11:54 AM 60.1 °F - 46.9 °F 62% 30.03 in 10.0 mi Calm Calm - N/A   Scattered Clouds
12:54 PM 57.9 °F - 43.0 °F 58% 30.02 in 10.0 mi WNW 6.9 mph - N/A   Overcast
1:54 PM 61.0 °F - 42.1 °F 50% 29.99 in 10.0 mi NNW 5.8 mph - N/A   Overcast
2:54 PM 60.1 °F - 45.0 °F 57% 29.97 in 10.0 mi Calm Calm - N/A   Overcast
3:54 PM 59.0 °F - 45.0 °F 60% 29.96 in 10.0 mi Calm Calm - N/A   Overcast
4:54 PM 60.1 °F - 43.0 °F 53% 29.95 in 10.0 mi West 6.9 mph - N/A   Mostly Cloudy
5:54 PM 59.0 °F - 44.1 °F 58% 29.95 in 10.0 mi Calm Calm - N/A   Mostly Cloudy
6:54 PM 57.0 °F - 45.0 °F 64% 29.95 in 10.0 mi Calm Calm - N/A   Overcast
7:54 PM 52.0 °F - 48.0 °F 86% 29.96 in 10.0 mi Calm Calm - N/A   Partly Cloudy
8:54 PM 52.0 °F - 46.0 °F 80% 29.96 in 10.0 mi Calm Calm - N/A   Scattered Clouds
9:54 PM 48.0 °F - 46.0 °F 93% 29.97 in 10.0 mi NNW 3.5 mph - N/A   Clear
10:54 PM 46.9 °F - 45.0 °F 93% 29.96 in 10.0 mi NNW 3.5 mph - N/A   Clear
11:54 PM 48.0 °F - 45.0 °F 89% 29.94 in 10.0 mi Calm Calm - N/A   Overcast